[[{"header":{"parameterUnit":"m.s-1","parameterCategory":1,"la1":30.2992,"la2":30.254,"lo1":-89.0895,"lo2":-89.0443,"dy":0.0025,"dx":0.0025,"nx":19,"ny":19,"refTime":"2026-03-09T09:00:00:Z","depth":0,"parameterNumber":2,"parameterNumberName":"U-component_of_WINDS"},"data":[0,0,0,-1.3533,-1.3533,-1.3536,-1.3536,-1.3547,-1.3547,0,0,0,0,0,0,0,0,0,0,0,-1.3535,-1.3535,-1.3533,-1.3533,-1.3536,-1.3536,-1.3547,-1.3547,0,0,0,0,0,0,0,0,0,0,0,-1.3535,-1.3535,-1.3535,-1.3533,-1.3536,-1.3536,-1.3547,-1.3542,0,0,0,0,0,0,0,0,0,0,-1.3538,-1.3542,-1.3535,-1.3535,-1.3533,-1.3536,-1.3536,-1.3542,-1.3542,-1.3547,0,-1.3553,0,-1.355,-1.3548,-1.3548,0,0,0,-1.353,-1.3542,-1.354,-1.3535,-1.3533,-1.3536,-1.3534,-1.3542,-1.3543,-1.3548,-1.3553,-1.3553,-1.355,-1.3548,-1.3548,-1.3584,-1.3584,0,0,-1.353,-1.3537,-1.354,-1.3541,-1.354,-1.3534,-1.3534,-1.3542,-1.3548,-1.3553,-1.3553,-1.355,-1.3548,-1.3548,-1.3584,-1.3584,0,0,0,-1.3531,-1.3537,-1.3535,-1.354,-1.3541,-1.3534,-1.3534,-1.3547,-1.3546,-1.3553,-1.355,-1.3548,-1.3548,-1.3584,-1.3584,-1.3603,0,0,0,-1.3531,-1.3538,-1.3535,-1.3539,-1.354,-1.3544,-1.3539,-1.3545,-1.3546,-1.355,-1.3548,-1.3548,-1.3583,-1.3584,-1.3602,-1.3611,0,0,0,-1.3533,-1.3538,-1.3539,-1.3539,-1.3541,-1.3544,-1.3543,-1.3545,-1.3544,-1.3548,-1.3549,-1.3583,-1.3584,-1.3601,-1.3609,-1.3622,0,0,0,-1.3538,-1.3557,-1.354,-1.356,-1.3541,-1.3556,-1.3542,-1.3553,-1.3558,-1.3548,-1.3583,-1.3584,-1.3601,-1.3608,-1.3621,-1.3633,-1.3639,0,0,-1.3566,-1.3561,-1.3572,-1.3557,-1.3576,-1.3555,-1.3577,-1.3575,-1.357,-1.358,-1.3581,-1.3602,-1.3609,-1.3622,-1.3671,-1.3676,0,0,0,-1.3583,-1.3591,-1.3595,-1.36,-1.3599,-1.3599,-1.3594,-1.3594,-1.3602,-1.3576,-1.3611,-1.3615,-1.3622,-1.3627,-1.3631,-1.3636,-1.3587,-1.3587,-1.3587,-1.3632,-1.3623,-1.3641,-1.3633,-1.3639,-1.3633,-1.3636,-1.3635,-1.3626,-1.3634,-1.3636,-1.3667,-1.3674,-1.3677,-1.3683,-1.3643,-1.3643,-1.3643,-1.3643,-1.3671,-1.3681,-1.3667,-1.368,-1.3671,-1.3682,-1.3678,-1.3671,-1.3679,-1.3665,-1.3671,-1.3655,-1.3683,-1.3687,-1.3645,-1.3644,-1.3644,-1.3644,-1.3644,-1.3701,-1.3704,-1.3703,-1.3709,-1.3715,-1.3707,-1.3716,-1.3708,-1.3701,-1.3707,-1.3708,-1.3708,-1.3705,-1.3708,-1.3708,-1.3708,-1.3708,-1.3708,-1.3708,-1.3732,-1.373,-1.3738,-1.3739,-1.3741,-1.3743,-1.3738,-1.374,-1.374,-1.3733,-1.3733,-1.3723,-1.3687,-1.3678,-1.371,-1.371,-1.371,-1.3709,-1.3709,-1.3773,-1.3762,-1.3775,-1.3777,-1.3777,-1.3783,-1.3773,-1.3778,-1.3779,-1.3783,-1.3772,-1.3747,-1.3741,-1.3738,-1.373,-1.3774,-1.3774,-1.3774,-1.3774,-1.3797,-1.3794,-1.3805,-1.3808,-1.3811,-1.3803,-1.3818,-1.3814,-1.3809,-1.3809,-1.3801,-1.3791,-1.3788,-1.3784,-1.3779,-1.3772,-1.3825,-1.3825,-1.3825,-1.3822,-1.3818,-1.3832,-1.3826,-1.3826,-1.3826,-1.3839,-1.3844,-1.3836,-1.3827,-1.3808,-1.3806,-1.3789,-1.3784,-1.3774,-1.3767,-1.3753,0,0]},{"header":{"parameterUnit":"m.s-1","parameterCategory":1,"la1":30.2992,"la2":30.254,"lo1":-89.0895,"lo2":-89.0443,"dy":0.0025,"dx":0.0025,"nx":19,"ny":19,"refTime":"2026-03-09T09:00:00:Z","depth":0,"parameterNumber":3,"parameterNumberName":"V-component_of_WINDS"},"data":[0,0,0,2.5899,2.5901,2.5986,2.5987,2.6086,2.6087,0,0,0,0,0,0,0,0,0,0,0,2.5865,2.5865,2.5899,2.5901,2.5986,2.5987,2.6086,2.6087,0,0,0,0,0,0,0,0,0,0,0,2.5865,2.5865,2.5865,2.5901,2.5986,2.5987,2.6086,2.6026,0,0,0,0,0,0,0,0,0,0,2.5945,2.5903,2.5865,2.5865,2.5902,2.5986,2.5987,2.6023,2.6029,2.6042,0,2.6048,0,2.6069,2.6093,2.6093,0,0,0,2.5909,2.5897,2.5929,2.5865,2.5902,2.5986,2.595,2.6027,2.6034,2.6051,2.605,2.6054,2.607,2.6093,2.6094,2.6135,2.6135,0,0,2.5904,2.5875,2.5923,2.5933,2.5915,2.5947,2.5952,2.6031,2.6029,2.605,2.6056,2.6072,2.6094,2.6094,2.6136,2.6135,0,0,0,2.5885,2.5872,2.5902,2.5928,2.5944,2.5949,2.5956,2.6026,2.6038,2.6057,2.6073,2.6094,2.6095,2.6136,2.6135,2.6098,0,0,0,2.5883,2.5861,2.5899,2.5882,2.5942,2.5985,2.5948,2.6032,2.6042,2.6073,2.6094,2.6096,2.6136,2.6136,2.61,2.6085,0,0,0,2.5863,2.5859,2.5867,2.5881,2.5916,2.5985,2.6001,2.6035,2.6051,2.6093,2.6096,2.6136,2.6136,2.6101,2.6088,2.6089,0,0,0,2.5833,2.5833,2.5866,2.5874,2.5915,2.596,2.6001,2.6037,2.6068,2.6095,2.6136,2.6136,2.6101,2.6089,2.609,2.6084,2.6079,0,0,2.5817,2.583,2.5837,2.5869,2.59,2.5949,2.5977,2.6034,2.6066,2.6111,2.6113,2.6099,2.6088,2.6089,2.6059,2.6054,0,0,0,2.5822,2.5827,2.5842,2.5869,2.5911,2.5948,2.6003,2.6025,2.6065,2.6082,2.6101,2.6095,2.6097,2.6096,2.6092,2.6096,2.6133,2.6134,2.6134,2.5759,2.5798,2.5813,2.5863,2.589,2.5948,2.5975,2.6015,2.6048,2.6052,2.6065,2.6042,2.6039,2.6037,2.6041,2.6066,2.6066,2.6066,2.6065,2.574,2.5753,2.5798,2.5827,2.5871,2.5899,2.5957,2.598,2.6014,2.6034,2.6038,2.6057,2.603,2.6036,2.6063,2.6064,2.6064,2.6064,2.6064,2.5703,2.5716,2.5742,2.5787,2.5819,2.5872,2.5903,2.5942,2.598,2.5983,2.6003,2.6004,2.6011,2.599,2.599,2.599,2.599,2.599,2.599,2.5653,2.5684,2.5703,2.575,2.5774,2.5811,2.5873,2.5899,2.5939,2.5966,2.5966,2.6,2.602,2.6024,2.5989,2.5989,2.5989,2.5989,2.5989,2.562,2.5634,2.5663,2.5687,2.5748,2.5778,2.5829,2.588,2.5908,2.5923,2.5957,2.5965,2.5981,2.5985,2.5989,2.5947,2.5947,2.5947,2.5947,2.5588,2.5601,2.5641,2.5677,2.5718,2.5768,2.5805,2.5854,2.5908,2.5929,2.5942,2.595,2.5952,2.5968,2.5972,2.5976,2.5932,2.5932,2.5932,2.5571,2.5589,2.561,2.5661,2.5712,2.5756,2.5793,2.5837,2.5902,2.5932,2.5947,2.5948,2.5962,2.5965,2.5993,2.5998,2.6007,0,0]}]]